EZY91QC EGKK-EDDM

Flight info

Callsign EZY91QC
Flight time N/A
Altitude 35000
Route MIMFO Y312 DVR UL9 KONAN UL607 KOK DCT MATUG DCT MOVUM T109 HAREM/N0363F230 T104 ROKIL ROKIL1B
Aircraft A21N/M-SDE2E3FGHIJ1RWXYZ/LB1G1

Departure

Time N/A
Airport London Gatwick Airport (EGKK)

Arrival

Time 2026-05-04 08:31
Airport Munich Airport (EDDM)
Time Latitude Longitude Altitude Speed Heading
2026-05-04 07:43 50.66653 5.08393 34997 ft 541 kts 109°
2026-05-04 07:43 50.65740 5.13255 34997 ft 541 kts 109°
2026-05-04 07:43 50.63297 5.26196 34997 ft 541 kts 109°
2026-05-04 07:44 50.61142 5.37522 34997 ft 541 kts 109°
2026-05-04 07:44 50.58971 5.48853 34997 ft 541 kts 109°
2026-05-04 07:45 50.56785 5.60192 34997 ft 541 kts 109°
2026-05-04 07:45 50.54580 5.71590 34995 ft 541 kts 109°
2026-05-04 07:46 50.52394 5.82833 34997 ft 541 kts 109°
2026-05-04 07:46 50.50189 5.94088 34993 ft 541 kts 109°
2026-05-04 07:47 50.47957 6.05405 34983 ft 541 kts 109°
2026-05-04 07:49 50.38986 6.50021 34981 ft 541 kts 110°
2026-05-04 07:49 50.36652 6.61247 34990 ft 541 kts 110°
2026-05-04 07:50 50.34334 6.72386 34992 ft 541 kts 111°
2026-05-04 07:50 50.32003 6.83549 34995 ft 541 kts 111°
2026-05-04 07:51 50.29644 6.94760 34996 ft 541 kts 111°
2026-05-04 07:51 50.27277 7.05918 34996 ft 543 kts 110°
2026-05-04 07:52 50.24887 7.17110 34996 ft 545 kts 109°
2026-05-04 07:52 50.22494 7.28295 34997 ft 546 kts 109°
2026-05-04 07:54 50.12808 7.73028 35014 ft 546 kts 110°
2026-05-04 07:55 50.10358 7.84187 35021 ft 546 kts 110°
2026-05-04 07:55 50.07879 7.95398 35026 ft 546 kts 110°
2026-05-04 07:56 50.05378 8.06642 35029 ft 546 kts 110°
2026-05-04 07:56 50.02878 8.17823 35031 ft 546 kts 110°
2026-05-04 07:57 50.00359 8.29024 35031 ft 546 kts 110°
2026-05-04 07:57 49.97840 8.40165 35031 ft 546 kts 110°
2026-05-04 07:58 49.95165 8.51272 35032 ft 545 kts 115°
2026-05-04 07:58 49.91735 8.61749 35033 ft 542 kts 123°
2026-05-04 07:59 49.87990 8.71708 35027 ft 541 kts 124°
2026-05-04 07:59 49.84194 8.81846 35026 ft 541 kts 123°
2026-05-04 08:00 49.82308 8.86913 34815 ft 543 kts 123°
2026-05-04 08:00 49.80425 8.91968 34386 ft 543 kts 123°
2026-05-04 08:00 49.78536 8.97016 33934 ft 545 kts 123°
2026-05-04 08:02 49.65113 9.32749 30770 ft 548 kts 122°
2026-05-04 08:02 49.63171 9.37722 30322 ft 546 kts 125°
2026-05-04 08:02 49.61012 9.42566 29868 ft 544 kts 130°
2026-05-04 08:03 49.58669 9.47086 29416 ft 540 kts 134°
2026-05-04 08:03 49.56205 9.51432 28967 ft 539 kts 135°
2026-05-04 08:03 49.53702 9.55761 28514 ft 538 kts 136°
2026-05-04 08:03 49.51275 9.59954 28066 ft 537 kts 135°
2026-05-04 08:04 49.48780 9.64280 27561 ft 536 kts 135°
2026-05-04 08:04 49.46405 9.68421 27030 ft 535 kts 136°
2026-05-04 08:04 49.43956 9.72709 26403 ft 534 kts 136°
2026-05-04 08:04 49.41504 9.76991 25775 ft 533 kts 136°
2026-05-04 08:05 49.39051 9.81258 25147 ft 532 kts 136°
2026-05-04 08:05 49.36608 9.85491 24524 ft 531 kts 136°
2026-05-04 08:05 49.34173 9.89695 23899 ft 530 kts 136°
2026-05-04 08:05 49.31738 9.93887 23275 ft 529 kts 136°
2026-05-04 08:06 49.29276 9.98124 22728 ft 524 kts 136°
2026-05-04 08:06 49.26901 10.02207 22269 ft 519 kts 136°
2026-05-04 08:06 49.24505 10.06320 21830 ft 514 kts 136°
2026-05-04 08:06 49.22139 10.10375 21319 ft 508 kts 136°
2026-05-04 08:08 49.07559 10.34671 17781 ft 389 kts 138°
2026-05-04 08:08 49.05698 10.37640 17388 ft 385 kts 138°
2026-05-04 08:10 48.91278 10.61051 14552 ft 378 kts 123°
2026-05-04 08:11 48.90183 10.64700 14071 ft 380 kts 111°
2026-05-04 08:11 48.88486 10.72283 13226 ft 373 kts 111°
2026-05-04 08:11 48.87632 10.75929 13070 ft 365 kts 112°
2026-05-04 08:12 48.86750 10.79530 13067 ft 364 kts 113°
2026-05-04 08:12 48.85846 10.83118 13064 ft 363 kts 114°
2026-05-04 08:12 48.84929 10.86702 13061 ft 360 kts 114°
2026-05-04 08:12 48.84025 10.90190 13060 ft 357 kts 115°
2026-05-04 08:13 48.83104 10.93721 13058 ft 353 kts 115°
2026-05-04 08:13 48.82216 10.97116 13057 ft 345 kts 115°
2026-05-04 08:13 48.81318 11.00525 13055 ft 349 kts 115°
2026-05-04 08:13 48.80404 11.03988 13054 ft 346 kts 115°
2026-05-04 08:14 48.79510 11.07378 13052 ft 344 kts 115°
2026-05-04 08:14 48.78634 11.10702 13048 ft 331 kts 115°
2026-05-04 08:14 48.77807 11.13838 13046 ft 319 kts 116°
2026-05-04 08:16 48.72121 11.35198 11151 ft 305 kts 115°
2026-05-04 08:16 48.71321 11.38187 10759 ft 304 kts 115°
2026-05-04 08:16 48.70528 11.41150 10365 ft 303 kts 115°
2026-05-04 08:17 48.69743 11.44079 10084 ft 300 kts 114°
2026-05-04 08:17 48.68952 11.47027 10057 ft 303 kts 114°
2026-05-04 08:17 48.68151 11.50010 10050 ft 304 kts 114°
2026-05-04 08:17 48.67363 11.52948 9915 ft 302 kts 114°
2026-05-04 08:19 48.61910 11.73162 7239 ft 286 kts 112°
2026-05-04 08:19 48.61166 11.75909 6865 ft 283 kts 112°
2026-05-04 08:20 48.60424 11.78643 6350 ft 278 kts 112°
2026-05-04 08:20 48.59687 11.81353 5763 ft 278 kts 112°
2026-05-04 08:20 48.58957 11.84032 5556 ft 270 kts 112°
2026-05-04 08:20 48.58256 11.86606 5388 ft 261 kts 111°
2026-05-04 08:21 48.57573 11.89113 5223 ft 252 kts 111°
2026-05-04 08:21 48.56912 11.91531 5041 ft 244 kts 111°
2026-05-04 08:21 48.56267 11.93889 5001 ft 236 kts 111°
2026-05-04 08:21 48.55649 11.96147 4997 ft 232 kts 111°
2026-05-04 08:22 48.55031 11.98404 4997 ft 232 kts 111°
2026-05-04 08:22 48.54411 12.00664 4997 ft 232 kts 111°
2026-05-04 08:24 48.49362 12.15763 4999 ft 232 kts 157°
2026-05-04 08:24 48.47784 12.16372 5012 ft 231 kts 171°
2026-05-04 08:24 48.46200 12.16724 5003 ft 231 kts 173°
2026-05-04 08:24 48.44593 12.17042 4999 ft 231 kts 175°
2026-05-04 08:25 48.43012 12.16860 4976 ft 228 kts 201°
2026-05-04 08:25 48.41746 12.15530 4999 ft 225 kts 227°
2026-05-04 08:25 48.40720 12.13744 5001 ft 223 kts 233°
2026-05-04 08:25 48.39777 12.11939 4992 ft 215 kts 237°
2026-05-04 08:26 48.39068 12.09975 4977 ft 213 kts 250°
2026-05-04 08:27 48.37800 11.96205 3300 ft 172 kts 264°
2026-05-04 08:28 48.37658 11.94465 3068 ft 166 kts 264°
2026-05-04 08:28 48.37521 11.92743 2851 ft 166 kts 264°
2026-05-04 08:28 48.37385 11.91035 2617 ft 157 kts 264°
2026-05-04 08:28 48.37259 11.89442 2406 ft 152 kts 264°
2026-05-04 08:29 48.37136 11.87861 2210 ft 152 kts 264°
2026-05-04 08:29 48.37012 11.86279 2012 ft 151 kts 264°
2026-05-04 08:29 48.36891 11.84720 1817 ft 151 kts 264°
2026-05-04 08:31 48.36333 11.79460 1457 ft 0 kts 233°
2026-05-04 08:33 48.36149 11.78611 1461 ft 7 kts 264°
2026-05-04 08:33 48.36143 11.78528 1461 ft 8 kts 263°
2026-05-04 08:35 48.35948 11.77676 1457 ft 15 kts 173°
2026-05-04 08:35 48.35833 11.77698 1456 ft 17 kts 173°
2026-05-04 08:35 48.35717 11.77719 1458 ft 16 kts 174°
2026-05-04 08:35 48.35609 11.77737 1461 ft 14 kts 174°
2026-05-04 08:37 48.35287 11.78211 1466 ft 11 kts 175°
2026-05-04 08:37 48.35236 11.78221 1466 ft 4 kts 157°
2026-05-04 08:37 48.35223 11.78258 1467 ft 4 kts 85°
2026-05-04 08:38 48.35226 11.78294 1468 ft 3 kts 83°
2026-05-04 08:38 48.35229 11.78322 1468 ft 2 kts 83°
2026-05-04 08:38 48.35229 11.78332 1469 ft 0 kts 83°